Weather in Dzhingirik

Russia / Karachay-Cherkess Republic     43°43′45″N   41°53′19″E
temp.,
°C
wind,
m/s
gust,
m/s
humid.,
%
clouds,
%
prec.,
mm/h
press.,
hPa
HPBL,
m
23 april, fri
fri2300:00+4nnw1295100 1.9 1023369
03:00+4nw1297100 3.1 1024529
06:00+4nnw119540 0.4 1025171
09:00+8nw116717 0.5 1024920
12:00+11nw334839 0.0 10211713
15:00+12n445231 0.1 10201439
18:00+9n2266100 0.1 1020326
21:00+6s218260 0.1 102023
24 april, sat
sat2400:00+4se2264100 0.0 102034
03:00+4sse1154100 0.0 102018
06:00+5se1154100 0.1 102035
09:00+7nnw1150100 0.1 1019314
12:00+12nw2547100 0.0 10171305
15:00+11nnw4463100 0.3 1018968
18:00+8n228057 0.5 1019275
21:00+5se009376 0.5 102217
25 april, sun
sun2500:00+6wnw119363 0.1 102168
03:00+5ene0195100 0.1 1021190
06:00+5nne119693 0.0 1020167
09:00+8nw2179100 0.0 1018585
12:00+11nw327182 0.0 1015657
15:00+12nnw327099 0.1 1014695
18:00+9nw2283100 0.0 1012366
21:00+7ese1197100 0.1 101440
26 april, mon
mon2600:00+7se3594100 2.2 1012164
03:00+6sse2290100 2.3 101116
06:00+7sse2287100 0.0 101042
09:00+10s138024 2.1 1007277
12:00+15nw446769 0.1 10061038
15:00+7nnw2397100 1.1 1009371
18:00+6nnw3498100 1.9 1011424
21:00+5nnw1296100 7.3 1014233
27 april, tue
tue2700:00+4nw1197100 0.1 1015214
03:00+4nw2299100 0.1 1016283
06:00+3nnw2198100 0.1 1017398
09:00+3n0198100 0.3 1018320
12:00+6nnw2289100 0.0 1015535
15:00+6nnw1286100 0.1 1016496
18:00+6n118566 0.0 1016278
21:00+4nnw119394 0.0 101850